This is the latest recevied weather packets stored in our database for station/object DG0LHZ-10. If no packets are shown the sender has not sent any weather packets the latest 1 day(s).
| Time | Temp. | Humidity | Pressure | Rain* | Wind** | Luminosity | Snow |
|---|---|---|---|---|---|---|---|
| 1778419210 | 28.33° C | 36% | 1012.9 hPa | - | - | - | - |
| 1778418309 | 28.33° C | 37% | 1013.1 hPa | - | - | - | - |
| 1778417409 | 27.78° C | 37% | 1013.3 hPa | - | - | - | - |
| 1778416509 | 27.78° C | 38% | 1013.5 hPa | - | - | - | - |
| 1778415609 | 27.22° C | 38% | 1013.6 hPa | - | - | - | - |
| 1778414709 | 26.67° C | 39% | 1013.9 hPa | - | - | - | - |
| 1778413809 | 26.11° C | 40% | 1014 hPa | - | - | - | - |
| 1778412909 | 25.56° C | 41% | 1014.2 hPa | - | - | - | - |
| 1778412009 | 25° C | 42% | 1014.3 hPa | - | - | - | - |
| 1778411109 | 23.89° C | 43% | 1014.5 hPa | - | - | - | - |
| 1778410209 | 23.89° C | 43% | 1014.7 hPa | - | - | - | - |
| 1778409309 | 22.78° C | 44% | 1014.9 hPa | - | - | - | - |
| 1778407509 | 22.22° C | 46% | 1015.1 hPa | - | - | - | - |
| 1778406608 | 21.67° C | 47% | 1015.2 hPa | - | - | - | - |
| 1778405708 | 21.11° C | 48% | 1015.3 hPa | - | - | - | - |
| 1778404808 | 20.56° C | 49% | 1015.5 hPa | - | - | - | - |
| 1778403908 | 20.56° C | 49% | 1015.6 hPa | - | - | - | - |
| 1778403008 | 20° C | 49% | 1015.8 hPa | - | - | - | - |
| 1778402108 | 19.44° C | 50% | 1015.6 hPa | - | - | - | - |
| 1778401208 | 18.89° C | 50% | 1015.7 hPa | - | - | - | - |
| 1778400308 | 17.78° C | 50% | 1016 hPa | - | - | - | - |
| 1778399408 | 17.22° C | 51% | 1016.2 hPa | - | - | - | - |
| 1778398508 | 16.11° C | 52% | 1016.1 hPa | - | - | - | - |
| 1778397608 | 15° C | 53% | 1016.3 hPa | - | - | - | - |
| 1778396708 | 14.44° C | 53% | 1016.6 hPa | - | - | - | - |
* Rain since midnight (hover to see other rain measurements)
** Current wind speed in m/s (hover to see current wind gust speed)